STARLINK-32280, 60736

Orbit data source: Space-Track

STARLINK-32280, 60736 is a payload satellite owned by SpaceX/Seattle (US) in LEO that was launched on Wed, 28 Aug 2024 UTC via an FALCON 9 launch vehicle from the Air Force Eastern Test Range (AFETR). Payload-class satellites include a variety of spacecraft equipped with specific instruments for various scientific and technological missions. These include communications satellites like Starlink; space stations such as the ISS; scientific satellites like the Hubble; Earth observation satellites from companies like Planet Labs, Umbra, and HawkEye 360; GPS; miniature CubeSats for education and research; and military/defense satellites.

Loading next visibility...
Identifier
60736, 2024-152S
Orbit
LEO
Last TLE update
19 hours ago
Origin
Manufacturer
SpaceX/Seattle
Mission
Operational Commercial Communications
Bus & Motor
STARLINK V2M, Unknown motor
Mass
730 kg wet, ~700 kg dry
Launch date (UTC)
2024-08-28 (10 months ago)
Launch vehicle
FALCON 9
Launch site
Air Force Eastern Test Range (AFETR)
Object type
Payload
Rocket body
Debris
Shape & HBR
Box + 2 Pan, 29 m
Radar Cross Section
36.964 m², Large (>1 m²)

Expand to show TLE details & history

TLE from 19 hours ago
0 STARLINK-32280
1 60736U 24152S   25191.62968485  .00040302  00000-0  12854-2 0  9993
2 60736  53.1596 312.5467 0001688 357.3095   2.7897 15.32147854 49754
Epoch: 2025-07-10T15:06Z
TLE epoch observation values (Epoch: 2025-07-10T15:06:44.771Z)
Latitude
-0.00002°
Longitude
157.06692°
Altitude
469.151 km
Speed
7.633 km/s
True Right ascension
20h 50m 11s
True Declination
0° 00' 00"
Sunlit
Object was in full shadow at epoch
Visualization orbit readout
Latitude
-15.34144°
Longitude
141.6407°
Altitude
472.254 km
Speed
7.631 km/s
Apparent Right ascension
16h 39m 41s
Apparent Declination
-57° 11' 04"
Sunlit
Object is in full shadow
Visualization observer readout
Local Sidereal Time
22:06:41
Azimuth
217.677° SW
Elevation
-28.659°
Doppler factor
1
Orbital elements
Apogee altitude
470.818 km
Perigee altitude
468.506 km
Semi-major axis
6,847.799 km
Eccentricity
0.00017
Inclination
53.1596°
RAAN
312.5467°
Arg. of periapsis
357.3095°
True anomaly
Unknown
Mean anomaly
2.7897°
Eccentric anomaly
Unknown
Mean motion
3.83016 °/min
Orbital period
93.99 mins
BSTAR
0.0012854
Loading maneuver chart data...
Loading SW <> Apogee altitude chart data...
Loading historical data...
Loading historical data...
Loading historical data...
Loading historical data...
Loading historical data...
Loading historical data...
Loading historical data...

STARLINK-32280 Visibility forecast

Observer location: undefined°, undefined°

Span
Click to sort rows by Start time (UTC) header in descending order
Start Az.
Max El. time (UTC)
Max El. Az.
Max El.
End time (UTC)
End Az.
6 mins2025-07-11 10:02:54.778Z195.329° SSW2025-07-11 10:05:54.778Z139.447° SSE27.178°2025-07-11 10:08:54.778Z72.247° E
5 mins2025-07-11 11:41:54.778Z276.907° WNW2025-07-11 11:43:54.778Z330.723° NNW28.221°2025-07-11 11:46:54.778Z32.624° NE
4 mins2025-07-11 16:38:54.778Z348.402° N2025-07-11 16:39:54.778Z14.53° NNE26.432°2025-07-11 16:42:54.778Z88.331° E
5 mins2025-07-11 18:15:54.778Z283.597° WNW2025-07-11 18:17:54.778Z236.579° WSW28.667°2025-07-11 18:20:54.778Z165.961° S
4 mins2025-07-12 09:32:54.778Z173.191° S2025-07-12 09:34:54.778Z124.891° SE23.148°2025-07-12 09:36:54.778Z82.481° E
|